Time,TemperatureF,DewpointF,PressureIn,WindDirection,WindDirectionDegrees,WindSpeedMPH,WindSpeedGustMPH,Humidity,HourlyPrecipIn,Conditions,Clouds,dailyrainin,SoftwareType,DateUTC
2013-04-01 00:03:00,69.0,-99.9,30.03,SSW,197,11.0,13.0,-999,-99.99,,,-99.99,,2013-04-01 04:03:00,
2013-04-01 00:14:00,69.0,-99.9,30.03,SSW,199,11.0,13.0,-999,-99.99,,,-99.99,,2013-04-01 04:14:00,
2013-04-01 00:24:00,68.0,-99.9,30.03,SSW,204,13.0,15.0,-999,-99.99,,,-99.99,,2013-04-01 04:24:00,
2013-04-01 00:33:00,68.0,-99.9,30.02,SSW,197,12.0,15.0,-999,-99.99,,,-99.99,,2013-04-01 04:33:00,
2013-04-01 00:44:00,68.0,-99.9,30.02,South,190,11.0,14.0,-999,-99.99,,,-99.99,,2013-04-01 04:44:00,
2013-04-01 00:53:00,68.0,-99.9,30.01,SSW,193,12.0,13.0,-999,-99.99,,,-99.99,,2013-04-01 04:53:00,
2013-04-01 01:03:00,68.0,-99.9,30.01,SSW,201,13.0,16.0,-999,-99.99,,,-99.99,,2013-04-01 05:03:00,
2013-04-01 01:13:00,68.0,-99.9,30.01,SSW,201,14.0,15.0,-999,-99.99,,,-99.99,,2013-04-01 05:13:00,
2013-04-01 01:23:00,68.0,-99.9,30.01,South,190,11.0,13.0,-999,-99.99,,,-99.99,,2013-04-01 05:23:00,
2013-04-01 01:33:00,68.0,-99.9,30.01,SSW,195,12.0,14.0,-999,-99.99,,,-99.99,,2013-04-01 05:33:00,
2013-04-01 01:43:00,68.0,-99.9,30.01,SSW,199,12.0,14.0,-999,-99.99,,,-99.99,,2013-04-01 05:43:00,
2013-04-01 01:53:00,68.0,-99.9,30.01,SSW,207,13.0,17.0,-999,-99.99,,,-99.99,,2013-04-01 05:53:00,
2013-04-01 02:02:00,68.0,-99.9,30.01,SSW,205,13.0,16.0,-999,-99.99,,,-99.99,,2013-04-01 06:02:00,
2013-04-01 02:13:00,68.0,-99.9,30.01,SSW,201,14.0,18.0,-999,-99.99,,,-99.99,,2013-04-01 06:13:00,
2013-04-01 02:23:00,68.0,-99.9,30.00,SSW,197,14.0,19.0,-999,-99.99,,,-99.99,,2013-04-01 06:23:00,
2013-04-01 02:34:00,68.0,-99.9,29.99,SSW,197,13.0,15.0,-999,-99.99,,,-99.99,,2013-04-01 06:34:00,
2013-04-01 02:43:00,68.0,-99.9,29.99,SSW,203,14.0,17.0,-999,-99.99,,,-99.99,,2013-04-01 06:43:00,
2013-04-01 02:53:00,67.0,-99.9,30.00,SSW,199,13.0,18.0,-999,-99.99,,,-99.99,,2013-04-01 06:53:00,
2013-04-01 03:03:00,67.0,-99.9,29.98,SSW,194,15.0,17.0,-999,-99.99,,,-99.99,,2013-04-01 07:03:00,
2013-04-01 03:13:00,67.0,-99.9,29.99,SSW,197,12.0,16.0,-999,-99.99,,,-99.99,,2013-04-01 07:13:00,
2013-04-01 03:22:00,67.0,-99.9,29.98,SSW,192,13.0,17.0,-999,-99.99,,,-99.99,,2013-04-01 07:22:00,
2013-04-01 03:32:00,67.0,-99.9,29.98,SSW,196,13.0,16.0,-999,-99.99,,,-99.99,,2013-04-01 07:32:00,
2013-04-01 03:43:00,67.0,-99.9,29.98,SSW,196,13.0,15.0,-999,-99.99,,,-99.99,,2013-04-01 07:43:00,
2013-04-01 03:53:00,67.0,-99.9,29.98,SSW,201,14.0,19.0,-999,-99.99,,,-99.99,,2013-04-01 07:53:00,
2013-04-01 04:03:00,67.0,-99.9,29.98,SSW,202,14.0,15.0,-999,-99.99,,,-99.99,,2013-04-01 08:03:00,
2013-04-01 04:13:00,67.0,-99.9,29.98,SSW,203,14.0,17.0,-999,-99.99,,,-99.99,,2013-04-01 08:13:00,
2013-04-01 04:22:00,67.0,-99.9,29.97,SSW,198,14.0,17.0,-999,-99.99,,,-99.99,,2013-04-01 08:22:00,
2013-04-01 04:32:00,67.0,-99.9,29.97,South,191,14.0,16.0,-999,-99.99,,,-99.99,,2013-04-01 08:32:00,
2013-04-01 04:44:00,67.0,-99.9,29.97,South,185,12.0,16.0,-999,-99.99,,,-99.99,,2013-04-01 08:44:00,
2013-04-01 04:53:00,67.0,-99.9,29.98,SSW,196,15.0,16.0,-999,-99.99,,,-99.99,,2013-04-01 08:53:00,
2013-04-01 05:03:00,67.0,-99.9,29.98,SSW,195,13.0,16.0,-999,-99.99,,,-99.99,,2013-04-01 09:03:00,
2013-04-01 05:12:00,67.0,-99.9,29.98,SSW,194,13.0,16.0,-999,-99.99,,,-99.99,,2013-04-01 09:12:00,
2013-04-01 05:23:00,67.0,-99.9,29.98,SSW,199,14.0,15.0,-999,-99.99,,,-99.99,,2013-04-01 09:23:00,
2013-04-01 05:33:00,67.0,-99.9,29.98,SSW,196,13.0,15.0,-999,-99.99,,,-99.99,,2013-04-01 09:33:00,
2013-04-01 05:43:00,67.0,-99.9,29.98,SSW,192,13.0,18.0,-999,-99.99,,,-99.99,,2013-04-01 09:43:00,
2013-04-01 05:54:00,67.0,-99.9,29.97,South,189,15.0,17.0,-999,-99.99,,,-99.99,,2013-04-01 09:54:00,
2013-04-01 06:03:00,67.0,-99.9,29.96,South,187,17.0,21.0,-999,-99.99,,,-99.99,,2013-04-01 10:03:00,
2013-04-01 06:13:00,68.0,-99.9,29.95,SSW,193,19.0,21.0,-999,-99.99,,,-99.99,,2013-04-01 10:13:00,
2013-04-01 06:24:00,68.0,-99.9,29.96,SSW,202,17.0,21.0,-999,-99.99,,,-99.99,,2013-04-01 10:24:00,
2013-04-01 06:34:00,68.0,-99.9,29.96,SSW,200,18.0,22.0,-999,-99.99,,,-99.99,,2013-04-01 10:34:00,
2013-04-01 06:43:00,68.0,-99.9,29.96,SSW,211,15.0,21.0,-999,-99.99,,,-99.99,,2013-04-01 10:43:00,
2013-04-01 06:54:00,67.0,-99.9,29.97,SSW,211,15.0,17.0,-999,-99.99,,,-99.99,,2013-04-01 10:54:00,
2013-04-01 07:03:00,67.0,-99.9,29.98,SSW,211,13.0,15.0,-999,-99.99,,,-99.99,,2013-04-01 11:03:00,
2013-04-01 07:13:00,66.0,-99.9,29.98,SSW,211,12.0,13.0,-999,-99.99,,,-99.99,,2013-04-01 11:13:00,
2013-04-01 07:23:00,66.0,-99.9,29.98,SSW,209,12.0,14.0,-999,-99.99,,,-99.99,,2013-04-01 11:23:00,
2013-04-01 07:33:00,67.0,-99.9,29.98,SSW,210,14.0,15.0,-999,-99.99,,,-99.99,,2013-04-01 11:33:00,
2013-04-01 07:43:00,67.0,-99.9,29.98,SSW,211,13.0,15.0,-999,-99.99,,,-99.99,,2013-04-01 11:43:00,
2013-04-01 07:53:00,67.0,-99.9,29.99,SSW,213,14.0,16.0,-999,-99.99,,,-99.99,,2013-04-01 11:53:00,
2013-04-01 08:03:00,66.0,-99.9,30.00,SW,217,12.0,14.0,-999,-99.99,,,-99.99,,2013-04-01 12:03:00,
2013-04-01 08:12:00,66.0,-99.9,30.00,SW,218,11.0,13.0,-999,-99.99,,,-99.99,,2013-04-01 12:12:00,
2013-04-01 08:23:00,66.0,-99.9,30.01,SW,219,10.0,11.0,-999,-99.99,,,-99.99,,2013-04-01 12:23:00,
2013-04-01 08:33:00,66.0,-99.9,30.01,SW,216,11.0,12.0,-999,-99.99,,,-99.99,,2013-04-01 12:33:00,
2013-04-01 08:43:00,66.0,-99.9,30.01,SW,215,12.0,13.0,-999,-99.99,,,-99.99,,2013-04-01 12:43:00,
2013-04-01 08:53:00,66.0,-99.9,30.01,SW,216,12.0,13.0,-999,-99.99,,,-99.99,,2013-04-01 12:53:00,
2013-04-01 09:03:00,66.0,-99.9,30.02,SW,215,10.0,11.0,-999,-99.99,,,-99.99,,2013-04-01 13:03:00,
2013-04-01 09:13:00,66.0,-99.9,30.02,SW,215,9.0,10.0,-999,-99.99,,,-99.99,,2013-04-01 13:13:00,
2013-04-01 09:23:00,66.0,-99.9,30.02,SW,219,9.0,9.0,-999,-99.99,,,-99.99,,2013-04-01 13:23:00,
2013-04-01 09:33:00,66.0,-99.9,30.03,SW,216,9.0,10.0,-999,-99.99,,,-99.99,,2013-04-01 13:33:00,
2013-04-01 09:43:00,66.0,-99.9,30.03,SSW,212,9.0,9.0,-999,-99.99,,,-99.99,,2013-04-01 13:43:00,
2013-04-01 09:53:00,66.0,-99.9,30.03,SSW,211,10.0,10.0,-999,-99.99,,,-99.99,,2013-04-01 13:53:00,
2013-04-01 10:04:00,66.0,-99.9,30.02,SW,214,12.0,12.0,-999,-99.99,,,-99.99,,2013-04-01 14:04:00,
2013-04-01 10:13:00,66.0,-99.9,30.02,SW,214,12.0,13.0,-999,-99.99,,,-99.99,,2013-04-01 14:13:00,
2013-04-01 10:23:00,66.0,-99.9,30.02,SSW,212,12.0,13.0,-999,-99.99,,,-99.99,,2013-04-01 14:23:00,
2013-04-01 10:33:00,66.0,-99.9,30.02,SSW,212,12.0,13.0,-999,-99.99,,,-99.99,,2013-04-01 14:33:00,
2013-04-01 10:43:00,67.0,-99.9,30.02,SW,216,12.0,13.0,-999,-99.99,,,-99.99,,2013-04-01 14:43:00,
2013-04-01 10:53:00,67.0,-99.9,30.02,SW,219,12.0,13.0,-999,-99.99,,,-99.99,,2013-04-01 14:53:00,
2013-04-01 11:03:00,67.0,-99.9,30.03,SW,219,11.0,13.0,-999,-99.99,,,-99.99,,2013-04-01 15:03:00,
2013-04-01 11:13:00,67.0,-99.9,30.03,SW,219,11.0,13.0,-999,-99.99,,,-99.99,,2013-04-01 15:13:00,
2013-04-01 11:23:00,67.0,-99.9,30.03,SW,222,10.0,12.0,-999,-99.99,,,-99.99,,2013-04-01 15:23:00,
2013-04-01 11:34:00,67.0,-99.9,30.04,SW,223,9.0,11.0,-999,-99.99,,,-99.99,,2013-04-01 15:34:00,
2013-04-01 11:44:00,67.0,-99.9,30.04,SW,221,10.0,11.0,-999,-99.99,,,-99.99,,2013-04-01 15:44:00,
2013-04-01 11:54:00,67.0,-99.9,30.04,SW,222,9.0,10.0,-999,-99.99,,,-99.99,,2013-04-01 15:54:00,
2013-04-01 12:03:00,67.0,-99.9,30.04,SW,222,9.0,10.0,-999,-99.99,,,-99.99,,2013-04-01 16:03:00,
2013-04-01 12:13:00,67.0,-99.9,30.04,SW,221,10.0,11.0,-999,-99.99,,,-99.99,,2013-04-01 16:13:00,
2013-04-01 12:23:00,67.0,-99.9,30.05,SW,217,10.0,11.0,-999,-99.99,,,-99.99,,2013-04-01 16:23:00,
2013-04-01 12:33:00,67.0,-99.9,30.04,SW,219,10.0,11.0,-999,-99.99,,,-99.99,,2013-04-01 16:33:00,
2013-04-01 12:43:00,67.0,-99.9,30.04,SW,217,10.0,11.0,-999,-99.99,,,-99.99,,2013-04-01 16:43:00,
2013-04-01 12:53:00,67.0,-99.9,30.04,SW,219,9.0,10.0,-999,-99.99,,,-99.99,,2013-04-01 16:53:00,
2013-04-01 13:03:00,67.0,-99.9,30.04,SW,221,10.0,11.0,-999,-99.99,,,-99.99,,2013-04-01 17:03:00,
2013-04-01 13:13:00,67.0,-99.9,30.04,SW,218,10.0,11.0,-999,-99.99,,,-99.99,,2013-04-01 17:13:00,
2013-04-01 13:23:00,67.0,-99.9,30.03,SW,215,10.0,11.0,-999,-99.99,,,-99.99,,2013-04-01 17:23:00,
2013-04-01 13:32:00,67.0,-99.9,30.03,SW,215,10.0,11.0,-999,-99.99,,,-99.99,,2013-04-01 17:32:00,
2013-04-01 13:42:00,67.0,-99.9,30.03,SW,219,11.0,12.0,-999,-99.99,,,-99.99,,2013-04-01 17:42:00,
2013-04-01 13:53:00,67.0,-99.9,30.03,SW,215,12.0,13.0,-999,-99.99,,,-99.99,,2013-04-01 17:53:00,
2013-04-01 14:03:00,67.0,-99.9,30.03,SW,223,11.0,12.0,-999,-99.99,,,-99.99,,2013-04-01 18:03:00,
2013-04-01 14:13:00,67.0,-99.9,30.03,SW,222,11.0,12.0,-999,-99.99,,,-99.99,,2013-04-01 18:13:00,
2013-04-01 14:22:00,67.0,-99.9,30.03,SW,226,11.0,11.0,-999,-99.99,,,-99.99,,2013-04-01 18:22:00,
2013-04-01 14:33:00,67.0,-99.9,30.02,SW,222,10.0,11.0,-999,-99.99,,,-99.99,,2013-04-01 18:33:00,
2013-04-01 14:43:00,68.0,-99.9,30.02,SW,230,9.0,10.0,-999,-99.99,,,-99.99,,2013-04-01 18:43:00,
2013-04-01 14:54:00,68.0,-99.9,30.02,WSW,238,10.0,11.0,-999,-99.99,,,-99.99,,2013-04-01 18:54:00,
2013-04-01 15:04:00,68.0,-99.9,30.02,WSW,237,10.0,11.0,-999,-99.99,,,-99.99,,2013-04-01 19:04:00,
2013-04-01 15:13:00,68.0,-99.9,30.02,WSW,238,8.0,10.0,-999,-99.99,,,-99.99,,2013-04-01 19:13:00,
2013-04-01 15:23:00,68.0,-99.9,30.02,SW,234,8.0,9.0,-999,-99.99,,,-99.99,,2013-04-01 19:23:00,
2013-04-01 15:33:00,68.0,-99.9,30.02,SW,234,8.0,9.0,-999,-99.99,,,-99.99,,2013-04-01 19:33:00,
2013-04-01 15:43:00,68.0,-99.9,30.01,SW,234,8.0,9.0,-999,-99.99,,,-99.99,,2013-04-01 19:43:00,
2013-04-01 15:53:00,68.0,-99.9,30.01,SW,235,7.0,8.0,-999,-99.99,,,-99.99,,2013-04-01 19:53:00,
2013-04-01 16:02:00,68.0,-99.9,30.01,WSW,240,6.0,8.0,-999,-99.99,,,-99.99,,2013-04-01 20:02:00,
2013-04-01 16:13:00,68.0,-99.9,30.00,WSW,246,6.0,7.0,-999,-99.99,,,-99.99,,2013-04-01 20:13:00,
2013-04-01 16:23:00,68.0,-99.9,30.00,SW,236,9.0,10.0,-999,-99.99,,,-99.99,,2013-04-01 20:23:00,
2013-04-01 16:33:00,68.0,-99.9,30.00,SW,232,8.0,9.0,-999,-99.99,,,-99.99,,2013-04-01 20:33:00,
2013-04-01 16:43:00,68.0,-99.9,29.99,WSW,240,8.0,9.0,-999,-99.99,,,-99.99,,2013-04-01 20:43:00,
2013-04-01 16:52:00,68.0,-99.9,29.99,SW,236,8.0,9.0,-999,-99.99,,,-99.99,,2013-04-01 20:52:00,
2013-04-01 17:03:00,68.0,-99.9,29.99,WSW,237,8.0,9.0,-999,-99.99,,,-99.99,,2013-04-01 21:03:00,
2013-04-01 17:12:00,68.0,-99.9,29.99,WSW,237,8.0,9.0,-999,-99.99,,,-99.99,,2013-04-01 21:12:00,
2013-04-01 17:23:00,68.0,-99.9,29.99,WSW,240,7.0,8.0,-999,-99.99,,,-99.99,,2013-04-01 21:23:00,
2013-04-01 17:33:00,68.0,-99.9,29.98,WSW,238,8.0,9.0,-999,-99.99,,,-99.99,,2013-04-01 21:33:00,
2013-04-01 17:44:00,68.0,-99.9,29.98,WSW,240,8.0,9.0,-999,-99.99,,,-99.99,,2013-04-01 21:44:00,
2013-04-01 17:53:00,68.0,-99.9,29.99,WSW,241,8.0,9.0,-999,-99.99,,,-99.99,,2013-04-01 21:53:00,
2013-04-01 18:03:00,68.0,-99.9,29.99,WSW,249,8.0,10.0,-999,-99.99,,,-99.99,,2013-04-01 22:03:00,
2013-04-01 18:13:00,68.0,-99.9,29.99,WSW,247,8.0,9.0,-999,-99.99,,,-99.99,,2013-04-01 22:13:00,
2013-04-01 18:23:00,68.0,-99.9,29.98,West,266,4.0,6.0,-999,-99.99,,,-99.99,,2013-04-01 22:23:00,
2013-04-01 18:33:00,68.0,-99.9,29.98,WSW,257,7.0,9.0,-999,-99.99,,,-99.99,,2013-04-01 22:33:00,
2013-04-01 18:43:00,68.0,-99.9,29.99,West,268,5.0,9.0,-999,-99.99,,,-99.99,,2013-04-01 22:43:00,
2013-04-01 18:52:00,69.0,-99.9,29.99,West,272,5.0,7.0,-999,-99.99,,,-99.99,,2013-04-01 22:52:00,
2013-04-01 19:02:00,69.0,-99.9,29.99,West,274,6.0,7.0,-999,-99.99,,,-99.99,,2013-04-01 23:02:00,
2013-04-01 19:12:00,69.0,-99.9,29.99,WNW,283,7.0,8.0,-999,-99.99,,,-99.99,,2013-04-01 23:12:00,
2013-04-01 19:23:00,69.0,-99.9,29.99,WNW,282,7.0,9.0,-999,-99.99,,,-99.99,,2013-04-01 23:23:00,
2013-04-01 19:32:00,69.0,-99.9,29.99,WNW,282,7.0,9.0,-999,-99.99,,,-99.99,,2013-04-01 23:32:00,
2013-04-01 19:43:00,69.0,-99.9,29.99,WNW,286,7.0,7.0,-999,-99.99,,,-99.99,,2013-04-01 23:43:00,
2013-04-01 19:53:00,68.0,-99.9,29.99,West,276,4.0,6.0,-999,-99.99,,,-99.99,,2013-04-01 23:53:00,
2013-04-01 20:03:00,68.0,-99.9,29.99,West,276,4.0,5.0,-999,-99.99,,,-99.99,,2013-04-02 00:03:00,
2013-04-01 20:12:00,68.0,-99.9,29.99,West,274,4.0,5.0,-999,-99.99,,,-99.99,,2013-04-02 00:12:00,
2013-04-01 20:23:00,68.0,-99.9,29.99,West,275,2.0,4.0,-999,-99.99,,,-99.99,,2013-04-02 00:23:00,
2013-04-01 20:33:00,68.0,-99.9,29.99,West,259,4.0,4.0,-999,-99.99,,,-99.99,,2013-04-02 00:33:00,
2013-04-01 20:43:00,68.0,-99.9,29.99,WSW,247,4.0,4.0,-999,-99.99,,,-99.99,,2013-04-02 00:43:00,
2013-04-01 20:53:00,68.0,-99.9,29.99,WSW,255,4.0,4.0,-999,-99.99,,,-99.99,,2013-04-02 00:53:00,
2013-04-01 21:03:00,67.0,-99.9,30.00,WSW,255,4.0,4.0,-999,-99.99,,,-99.99,,2013-04-02 01:03:00,
2013-04-01 21:12:00,67.0,-99.9,30.00,WSW,249,4.0,5.0,-999,-99.99,,,-99.99,,2013-04-02 01:12:00,
2013-04-01 21:22:00,67.0,-99.9,30.00,West,259,5.0,5.0,-999,-99.99,,,-99.99,,2013-04-02 01:22:00,
2013-04-01 21:32:00,67.0,-99.9,30.01,West,267,4.0,5.0,-999,-99.99,,,-99.99,,2013-04-02 01:32:00,
2013-04-01 21:43:00,67.0,-99.9,30.01,West,272,3.0,4.0,-999,-99.99,,,-99.99,,2013-04-02 01:43:00,
2013-04-01 21:53:00,67.0,-99.9,30.01,WSW,251,5.0,5.0,-999,-99.99,,,-99.99,,2013-04-02 01:53:00,
2013-04-01 22:03:00,67.0,-99.9,30.02,WSW,251,6.0,7.0,-999,-99.99,,,-99.99,,2013-04-02 02:03:00,
2013-04-01 22:13:00,67.0,-99.9,30.02,West,262,6.0,7.0,-999,-99.99,,,-99.99,,2013-04-02 02:13:00,
2013-04-01 22:23:00,67.0,-99.9,30.03,West,263,6.0,7.0,-999,-99.99,,,-99.99,,2013-04-02 02:23:00,
2013-04-01 22:33:00,67.0,-99.9,30.03,WSW,248,5.0,6.0,-999,-99.99,,,-99.99,,2013-04-02 02:33:00,
2013-04-01 22:43:00,67.0,-99.9,30.03,WSW,242,6.0,7.0,-999,-99.99,,,-99.99,,2013-04-02 02:43:00,
2013-04-01 22:53:00,67.0,-99.9,30.03,West,262,6.0,7.0,-999,-99.99,,,-99.99,,2013-04-02 02:53:00,
2013-04-01 23:02:00,67.0,-99.9,30.03,West,273,4.0,6.0,-999,-99.99,,,-99.99,,2013-04-02 03:02:00,
2013-04-01 23:13:00,67.0,-99.9,30.03,WNW,282,5.0,6.0,-999,-99.99,,,-99.99,,2013-04-02 03:13:00,
2013-04-01 23:22:00,67.0,-99.9,30.03,WNW,284,6.0,7.0,-999,-99.99,,,-99.99,,2013-04-02 03:22:00,
2013-04-01 23:34:00,67.0,-99.9,30.03,WNW,286,6.0,6.0,-999,-99.99,,,-99.99,,2013-04-02 03:34:00,
2013-04-01 23:43:00,67.0,-99.9,30.03,West,278,4.0,6.0,-999,-99.99,,,-99.99,,2013-04-02 03:43:00,
2013-04-01 23:53:00,67.0,-99.9,30.03,West,274,4.0,5.0,-999,-99.99,,,-99.99,,2013-04-02 03:53:00,